[[[{"header":{"parameterUnit":"kt","parameterCategory":2,"dx":1,"dy":1,"la1":30.253999710083008,"la2":30.299108505249023,"lo1":-89.0895004272461,"lo2":-89.04439544677734,"nx":28,"ny":28,"refTime":"2022-10-25T21:00:00:Z","depth":0,"parameterNumber":1,"parameterNumberName":"U-component_of_WINDS"},"data":[2.4246,2.4149,2.4098,2.3965,2.3897,2.3798,2.3746,2.3675,2.3605,2.3484,2.3405,2.3344,2.3254,2.315,2.3063,2.3038,2.3006,2.3014,2.2983,2.2993,2.2991,2.2989,2.3008,2.3008,2.3008,2.298,2.2979,2.2979,2.4277,2.4208,2.412,2.3999,2.3925,2.3889,2.3791,2.3732,2.3644,2.3555,2.3472,2.336,2.3265,2.3168,2.3069,2.3026,2.3002,2.3004,2.3006,2.2993,2.3002,2.3022,2.3026,2.3026,2.3026,2.3026,2.3026,2.3026,2.4319,2.4261,2.4155,2.4057,2.3982,2.3902,2.3838,2.376,2.3673,2.3558,2.351,2.3409,2.3309,2.3158,2.3093,2.3016,2.3004,2.2987,2.2983,2.2981,2.2988,2.3046,2.2995,2.2995,2.2995,2.2995,2.2994,0,2.4332,2.4292,2.4199,2.4094,2.4019,2.393,2.384,2.3799,2.3689,2.3621,2.3519,2.3451,2.3318,2.3217,2.3108,2.3041,2.2993,2.298,2.2969,2.2992,2.3031,2.3014,2.3035,2.298,2.2979,2.2979,2.2979,2.2979,2.4374,2.4308,2.4166,2.411,2.4044,2.3953,2.3887,2.3793,2.3728,2.3603,2.3556,2.3452,2.3362,2.3208,2.3113,2.3013,2.2987,2.2974,2.2971,2.3,2.299,2.2996,2.2992,2.2975,2.2976,2.2976,2.2976,0,2.4404,2.4309,2.4188,2.405,2.4014,2.3952,2.3836,2.3772,2.3699,2.3602,2.3574,2.3458,2.3358,2.3264,2.3128,2.3082,2.299,2.2966,2.3027,2.3018,2.2999,2.3003,2.2943,2.2933,2.293,2.293,2.293,0,2.4401,2.4317,2.4181,2.4115,2.4022,2.3925,2.3836,2.3762,2.3666,2.3589,2.3515,2.3445,2.3332,2.3249,2.318,2.3086,2.3058,2.3018,2.3001,2.3025,2.303,2.2987,2.2987,2.2958,2.2959,2.2959,2.2959,0,2.4458,2.4281,2.4173,2.4117,2.3957,2.391,2.3841,2.373,2.3664,2.3563,2.3521,2.341,2.335,2.3268,2.318,2.3182,2.306,2.3044,2.3019,2.3022,2.2994,2.2997,2.297,2.296,2.296,2.296,2.296,0,2.4438,2.4334,2.4189,2.4056,2.4012,2.394,2.3823,2.3738,2.3626,2.3576,2.3495,2.3431,2.3335,2.3329,2.3198,2.3227,2.3174,2.3125,2.3121,2.3104,2.3099,2.3099,2.3082,2.3078,2.3097,2.3098,2.3099,0,2.4534,2.4357,2.4268,2.4132,2.4037,2.3959,2.3878,2.3777,2.3702,2.3613,2.3531,2.3428,2.3401,2.3355,2.3303,2.3214,2.3177,2.3216,2.3095,2.3092,2.3131,2.3114,2.3135,2.3097,2.3112,2.311,2.3109,0,2.4592,2.4389,2.4369,2.4301,2.4146,2.4062,2.3968,2.3842,2.3788,2.3678,2.3599,2.3448,2.3424,2.3345,2.3278,2.3229,2.32,2.3207,2.3203,2.3213,2.3107,2.313,2.3124,2.3167,2.3165,2.3164,2.3119,0,2.4595,2.4488,2.443,2.4272,2.4191,2.4095,2.3983,2.3914,2.3859,2.3778,2.3656,2.3539,2.3408,2.3371,2.3312,2.3227,2.3226,2.3197,2.318,2.3169,2.3152,2.3145,2.3217,2.3215,2.3214,2.3213,0,0,2.4711,2.4552,2.445,2.4348,2.4274,2.4186,2.4094,2.4011,2.3842,2.3794,2.3784,2.3554,2.3457,2.3319,2.3307,2.3251,2.3227,2.3231,2.3175,2.3171,2.3167,2.3151,2.3144,2.3212,2.3211,2.3211,2.3211,0,2.4686,2.4585,2.4491,2.44,2.4259,2.4175,2.4154,2.3997,2.394,2.3813,2.3741,2.3653,2.3464,2.3375,2.3304,2.3247,2.3196,2.3215,2.3224,2.3168,2.3166,2.3163,2.3148,2.3143,2.3208,2.3208,2.3208,0,2.4726,2.4609,2.4549,2.4366,2.4271,2.417,2.4127,2.4018,2.3944,2.3847,2.3721,2.364,2.3506,2.3386,2.3327,2.3316,2.3176,2.3195,2.3198,2.3188,2.3129,2.3126,2.3124,2.3158,2.3158,2.3158,0,0,2.472,2.4615,2.4454,2.4351,2.4297,2.4167,2.4099,2.4032,2.3911,2.3863,2.3754,2.3641,2.3532,2.3462,2.3351,2.3234,2.32,2.3194,2.3196,2.3198,2.319,2.3132,2.3129,2.3159,2.3159,2.3159,0,0,2.4715,2.4524,2.4485,2.435,2.4239,2.4072,2.4015,2.3963,2.385,2.3848,2.3729,2.3692,2.3577,2.3497,2.3527,2.3344,2.3329,2.3319,2.3398,2.34,2.3402,2.3423,2.3462,0,0,0,0,0,2.4627,2.4549,2.4516,2.4475,2.4237,2.4091,2.406,2.3959,2.3954,2.3912,2.3814,2.3761,2.3491,2.3514,2.3477,2.3443,2.3174,2.3172,2.3169,2.3243,2.3246,2.3248,0,0,0,0,0,0,2.461,2.456,2.4517,2.4349,2.4294,2.4093,2.4062,2.4032,2.3955,2.3948,2.3782,2.3755,2.3666,2.3527,2.3494,2.3464,2.3472,2.3173,2.3171,2.3169,2.3244,2.3246,2.3248,0,0,0,0,0,2.4596,2.4556,2.4201,2.4349,2.4302,2.4149,2.4063,2.4038,2.3977,2.3821,2.3793,2.3907,2.3668,2.3634,2.3507,2.3482,2.3494,2.3482,2.3172,2.317,2.3168,2.3245,0,0,0,0,0,0,2.4586,2.4533,2.4189,2.4171,2.4368,2.4159,2.4122,2.4044,2.3853,2.3825,2.3941,2.3937,2.3669,2.3642,2.3616,2.3494,2.3512,2.35,2.3492,2.317,2.3169,2.3168,0,0,0,0,0,0,2.4553,2.4518,2.418,2.4209,2.4194,2.4168,2.4135,2.401,2.3852,2.3984,2.3975,2.3942,2.3708,2.3647,2.3627,2.3435,2.3525,2.3514,2.3506,2.3501,2.3169,2.3168,0,0,0,0,0,0,2.4537,2.4506,2.4213,2.4201,2.4188,2.3978,2.4055,2.3818,2.3878,2.3994,2.388,2.3882,2.3714,2.3691,2.3635,2.3452,2.3439,2.3525,2.3517,2.3512,2.3508,0,0,0,0,0,0,0,2.4523,2.475,2.4296,2.4195,2.4183,2.4005,2.4,2.3995,2.3878,2.3879,2.388,2.3881,2.359,2.3578,2.3565,2.3466,0,0,2.3526,2.352,0,0,0,0,0,0,0,0,2.4761,2.4753,2.4295,2.4291,2.4288,2.4004,2.4,2.3996,2.3878,2.3879,2.388,2.3881,2.3587,2.3577,2.3566,0,0,0,0,0,0,0,0,0,0,0,0,0,0,0,2.4295,2.4292,0,2.4003,2.4,2.3997,2.3878,2.3879,2.388,2.388,2.3584,2.3576,2.3567,0,0,0,0,0,0,0,0,0,0,0,0,0,0,0,0,0,0,0,0,0,0,0,0,0,0,0,0,0,0,0,0,0,0,0,0,0,0,0,0,0,0,0,0,0,0,0,0,0,0,0,0,0,0,0,0,0,0,0,0,0,0,0,0,0,0,0,0,0]}],[{"header":{"parameterUnit":"kt","parameterCategory":2,"dx":1,"dy":1,"la1":30.253999710083008,"la2":30.299108505249023,"lo1":-89.0895004272461,"lo2":-89.04439544677734,"nx":28,"ny":28,"refTime":"2022-10-25T21:00:00:Z","depth":0,"parameterNumber":2,"parameterNumberName":"V-component_of_WINDS"},"data":[9.5475,9.5774,9.5933,9.6346,9.6558,9.6867,9.7028,9.7253,9.747,9.7855,9.8104,9.8291,9.8569,9.8902,9.9178,9.9254,9.9363,9.9354,9.9447,9.9342,9.9338,9.9334,9.9278,9.9373,9.9374,9.9536,9.9537,9.9538,9.539,9.5604,9.5867,9.6231,9.6459,9.6564,9.686,9.7043,9.7315,9.7584,9.7837,9.8187,9.8482,9.8769,9.9079,9.9221,9.9288,9.9294,9.9289,9.9332,9.9225,9.9163,9.9235,9.9235,9.9235,9.9235,9.9235,9.9235,9.5279,9.545,9.5764,9.6053,9.6278,9.6519,9.671,9.6938,9.7196,9.7541,9.7676,9.7986,9.8284,9.8733,9.8921,9.9166,9.9188,9.9244,9.926,9.9271,9.9266,9.9021,9.9225,9.9225,9.9225,9.9226,9.9226,0,9.5248,9.5371,9.5634,9.5945,9.6164,9.6419,9.6679,9.68,9.7109,9.7308,9.7611,9.7811,9.8204,9.8506,9.8829,9.9017,9.9146,9.9173,9.9213,9.9158,9.9066,9.9125,9.8949,9.9167,9.9167,9.9167,9.9167,9.9167,9.5153,9.5332,9.5735,9.5898,9.6081,9.6339,9.6526,9.6785,9.697,9.7327,9.7463,9.7768,9.8026,9.8479,9.8741,9.9034,9.91,9.9168,9.9145,9.9083,9.9111,9.91,9.9123,9.9168,9.9168,9.9168,9.9168,0,9.5086,9.5345,9.5673,9.6054,9.6156,9.6329,9.6655,9.6834,9.7035,9.731,9.7389,9.7704,9.7994,9.8247,9.8626,9.8749,9.904,9.9093,9.8942,9.8968,9.9059,9.9049,9.9299,9.9348,9.9244,9.9244,9.9245,0,9.5109,9.5331,9.5707,9.5883,9.614,9.6397,9.6643,9.6842,9.7104,9.7323,9.751,9.771,9.8002,9.8239,9.8421,9.8702,9.8771,9.8884,9.8931,9.8872,9.8859,9.8978,9.8975,9.9021,9.9019,9.9018,9.9017,0,9.498,9.544,9.5727,9.5874,9.6302,9.643,9.6614,9.6909,9.7088,9.7359,9.7479,9.7774,9.7937,9.8162,9.8394,9.837,9.8741,9.8757,9.8858,9.8853,9.8932,9.8924,9.9077,9.9015,9.9015,9.9014,9.9014,0,9.5041,9.5314,9.5688,9.6052,9.6162,9.6348,9.6662,9.688,9.7177,9.7306,9.7521,9.7677,9.794,9.7937,9.8305,9.8209,9.8359,9.849,9.8502,9.8546,9.8539,9.8599,9.8713,9.8739,9.8579,9.8576,9.8573,0,9.4826,9.5273,9.5499,9.5847,9.609,9.6291,9.6502,9.6759,9.6949,9.7182,9.739,9.765,9.7702,9.782,9.7967,9.8193,9.8316,9.8182,9.8516,9.8525,9.8439,9.8546,9.8503,9.8659,9.853,9.8534,9.8538,0,9.4693,9.5214,9.5259,9.5441,9.5824,9.6026,9.6266,9.6584,9.6727,9.6992,9.7204,9.7572,9.763,9.7819,9.7977,9.8117,9.8239,9.8158,9.817,9.817,9.8527,9.8487,9.8512,9.8314,9.832,9.8324,9.8503,0,9.4737,9.4993,9.5127,9.5513,9.5709,9.5939,9.6215,9.6384,9.6519,9.6715,9.7025,9.73,9.762,9.7712,9.7843,9.8081,9.8083,9.8138,9.816,9.8224,9.8291,9.8317,9.8039,9.8041,9.8043,9.8044,0,0,9.447,9.4843,9.5083,9.5328,9.551,9.5715,9.5937,9.6136,9.6531,9.6652,9.6665,9.7224,9.7446,9.7795,9.7836,9.7961,9.8031,9.7997,9.8189,9.8204,9.8219,9.8285,9.8308,9.8047,9.8048,9.8049,9.8049,0,9.4545,9.4771,9.4988,9.5207,9.5539,9.5737,9.5788,9.6152,9.6288,9.6593,9.6757,9.6974,9.7411,9.7629,9.7796,9.796,9.8073,9.8035,9.8037,9.8198,9.821,9.8222,9.8288,9.8308,9.8054,9.8053,9.8053,0,9.4468,9.4738,9.4872,9.5292,9.551,9.5752,9.5843,9.6091,9.6274,9.6482,9.6782,9.697,9.7281,9.7571,9.7711,9.7728,9.8096,9.8025,9.8021,9.8044,9.8213,9.8228,9.824,9.807,9.8069,9.8068,0,0,9.4495,9.4734,9.5104,9.5329,9.5455,9.5752,9.5907,9.6059,9.6336,9.6446,9.6692,9.6954,9.7213,9.7376,9.7632,9.791,9.7998,9.8016,9.8015,9.8014,9.8035,9.8203,9.8217,9.8064,9.8064,9.8064,0,0,9.4508,9.4949,9.5037,9.5333,9.5591,9.597,9.6096,9.6214,9.6472,9.6477,9.6742,9.6823,9.71,9.7277,9.7194,9.7645,9.7659,9.7685,9.7519,9.7523,9.7522,9.7476,9.7324,0,0,0,0,0,9.4728,9.4895,9.497,9.5061,9.5592,9.5927,9.5997,9.6223,9.623,9.6326,9.655,9.6659,9.7288,9.7221,9.7305,9.7397,9.8014,9.8022,9.8031,9.7885,9.7885,9.7885,0,0,0,0,0,0,9.4766,9.4876,9.4967,9.5348,9.547,9.5924,9.5987,9.6054,9.6226,9.6243,9.6612,9.6671,9.6867,9.7193,9.7265,9.7348,9.7301,9.8017,9.8025,9.8031,9.7885,9.7885,9.7885,0,0,0,0,0,9.4797,9.4886,9.5677,9.5348,9.5453,9.5793,9.5983,9.6039,9.6176,9.6524,9.6586,9.6331,9.6863,9.694,9.7237,9.731,9.7252,9.7278,9.8022,9.8028,9.8033,9.7885,0,0,0,0,0,0,9.482,9.4939,9.5704,9.5744,9.5302,9.5773,9.5854,9.6025,9.6451,9.6514,9.6255,9.6263,9.6863,9.6923,9.6981,9.7284,9.7212,9.7239,9.7256,9.8027,9.8031,9.8035,0,0,0,0,0,0,9.4893,9.4971,9.5724,9.5655,9.569,9.5752,9.5825,9.6108,9.6453,9.6158,9.6179,9.6253,9.6774,9.6911,9.6956,9.7389,9.7182,9.7207,9.7225,9.7236,9.803,9.8034,0,0,0,0,0,0,9.493,9.4998,9.5646,9.5672,9.5702,9.6174,9.6006,9.6536,9.6396,9.6136,9.6389,9.6386,9.6759,9.6811,9.6939,9.7351,9.738,9.7183,9.72,9.7212,9.722,0,0,0,0,0,0,0,9.496,9.4452,9.5463,9.5687,9.5713,9.6118,9.6129,9.614,9.6395,9.6392,9.639,9.6387,9.7036,9.7064,9.7092,9.732,0,0,9.718,9.7192,0,0,0,0,0,0,0,0,9.4429,9.4446,9.5465,9.5473,9.5481,9.612,9.6129,9.6138,9.6395,9.6392,9.639,9.6388,9.7043,9.7066,9.7089,0,0,0,0,0,0,0,0,0,0,0,0,0,0,0,9.5466,9.5473,0,9.6121,9.6129,9.6136,9.6394,9.6393,9.6391,9.6389,9.705,9.7068,9.7087,0,0,0,0,0,0,0,0,0,0,0,0,0,0,0,0,0,0,0,0,0,0,0,0,0,0,0,0,0,0,0,0,0,0,0,0,0,0,0,0,0,0,0,0,0,0,0,0,0,0,0,0,0,0,0,0,0,0,0,0,0,0,0,0,0,0,0,0,0]}]]]